Theta_e
322 323 323 323 323 322 323 323 323 324 324 325 325 325 324 324 321 316 310 316 321 331 328 314 312 312 313 314 316 314 308 306 309 309 309 311 310 315 322 323 325 329 331 335 338
322 322 322 322 322 322 322 322 323 323 323 324 324 324 323 323 312 310 324 338 337 333 312 309 307 310 309 311 312 309 306 308 314 316 309 312 311 313 316 321 325 328 334 337 337
321 321 322 322 322 322 322 322 322 323 323 323 323 323 322 321 311 313 340 339 337 331 314 312 313 310 306 310 311 308 302 308 312 312 314 313 312 314 313 313 321 323 329 332 332
320 321 322 322 322 322 321 322 322 323 323 323 322 322 323 317 302 312 343 340 339 320 314 312 311 304 302 304 310 301 306 308 308 310 311 314 316 315 314 314 324 328 331 331 331
320 320 321 321 321 321 321 321 321 322 321 321 322 323 314 311 311 321 347 342 322 315 311 310 309 306 304 307 307 304 306 308 310 307 308 317 316 316 315 320 322 328 330 330 327
320 320 320 320 320 320 320 319 319 319 320 321 322 323 318 306 317 322 325 321 317 314 313 312 311 311 309 305 303 306 306 305 308 306 308 309 314 316 316 320 323 326 327 327 326
320 320 320 320 320 320 319 318 318 319 320 322 324 320 312 310 318 319 318 316 318 317 314 316 314 310 309 306 307 307 300 305 306 307 308 312 307 310 319 320 319 323 324 326 330
319 319 319 319 320 320 319 319 319 320 322 324 327 316 309 322 319 317 317 317 319 319 317 317 316 310 306 309 308 302 301 295 303 310 312 309 301 310 316 318 317 318 324 327 326
319 318 318 319 319 319 319 318 319 321 323 325 317 313 310 321 316 319 318 316 317 318 317 321 312 307 309 302 298 300 296 301 305 309 311 307 302 312 315 318 315 316 323 324 321
318 318 318 318 318 318 317 317 318 317 317 320 319 309 314 313 316 319 317 318 315 314 313 310 306 302 301 298 293 297 299 300 301 304 305 300 301 306 312 316 317 315 319 321 321
318 317 317 317 318 317 313 311 309 309 309 309 310 313 316 319 320 315 318 316 314 310 303 307 300 297 301 303 304 303 302 301 305 307 304 301 302 305 308 311 308 309 319 321 321
316 317 317 317 318 317 311 308 315 315 306 313 314 315 318 317 311 314 317 310 309 304 306 303 299 306 309 308 306 305 302 301 305 307 303 301 301 306 308 308 310 311 318 320 319
315 316 317 317 317 310 308 314 319 320 306 312 314 312 313 313 311 312 315 312 308 306 306 301 305 312 309 305 305 303 301 301 300 303 303 301 298 301 309 312 314 314 319 320 318
314 315 316 317 310 313 314 318 318 318 301 308 310 311 314 312 311 318 318 313 309 304 306 303 308 308 305 306 305 299 306 305 303 299 292 300 289 302 304 307 310 311 312 314 323
313 314 315 313 312 312 321 320 316 316 292 309 307 315 314 309 312 315 319 314 307 309 307 305 305 305 305 306 308 303 308 305 305 299 295 299 292 298 304 302 305 307 311 312 321
313 314 313 312 312 314 320 315 315 300 293 304 309 308 306 308 311 314 314 315 314 310 307 306 311 309 306 310 310 310 306 303 301 297 290 297 296 297 299 301 305 309 310 312 319
312 313 310 316 314 320 320 313 299 293 308 303 304 307 304 306 308 311 310 307 303 298 300 306 305 309 312 306 308 304 298 290 291 290 291 299 297 295 303 305 307 306 308 309 318
310 309 314 316 314 317 316 306 294 304 303 310 308 306 302 306 307 309 308 304 309 307 303 303 298 308 312 306 301 301 298 292 285 286 289 298 296 299 306 308 309 309 308 309 310
309 320 317 318 321 318 310 298 300 307 311 310 307 301 301 306 307 307 305 306 311 308 301 302 302 311 311 311 307 302 297 300 293 295 291 296 300 304 306 305 308 309 308 306 306
313 316 316 318 318 317 306 300 307 313 313 312 305 306 301 303 303 304 305 310 311 312 309 305 299 309 310 311 309 304 306 295 294 287 285 292 296 297 303 305 307 305 305 308 309
317 313 322 323 321 312 301 304 309 314 314 310 306 306 308 308 307 304 306 311 314 310 309 305 303 304 309 306 304 304 299 298 298 295 288 288 293 303 301 304 304 304 306 306 306
314 308 324 321 306 306 301 308 309 312 312 313 311 310 310 310 311 309 309 312 317 314 309 310 305 298 301 308 310 305 300 299 291 291 294 292 292 305 305 307 307 307 307 305 306
309 312 323 320 301 301 307 308 310 312 313 312 310 311 311 308 305 312 311 319 318 318 312 311 300 295 299 303 307 306 307 302 299 296 292 289 293 307 309 306 307 306 306 307 307
309 305 313 315 313 308 306 308 310 313 313 313 311 312 310 307 309 309 309 316 320 316 317 316 303 300 294 299 303 301 304 302 297 293 295 296 298 302 306 304 305 305 305 305 307
311 306 312 305 307 308 308 309 309 309 311 312 308 309 308 304 306 307 311 311 315 314 311 309 300 303 304 305 304 303 302 302 298 298 293 297 298 302 303 303 304 307 307 307 307
306 310 313 311 314 311 307 306 308 310 312 308 306 310 308 305 307 307 311 308 308 308 306 309 301 304 301 305 304 302 304 303 303 303 302 300 298 304 306 306 306 306 307 306 307
319 319 312 308 307 306 306 309 310 311 314 315 313 311 309 312 314 313 315 313 313 308 306 307 303 300 295 305 303 297 302 303 305 305 303 297 301 305 305 306 305 305 308 308 309
Wind_Speed
7 6 7 8 8 8 8 9 9 10 10 11 12 11 12 13 17 4 6 13 9 7 5 8 8 11 13 14 14 9 4 6 5 10 11 5 12 7 8 12 6 5 16 13 12
7 6 7 8 8 8 9 9 10 11 11 11 11 11 12 12 5 9 14 7 7 7 3 7 11 11 8 11 10 6 7 11 16 15 3 10 13 10 11 16 18 15 14 16 14
7 7 7 8 8 8 9 10 11 11 11 11 11 12 11 8 5 8 14 9 7 6 5 6 10 6 11 10 15 9 2 9 8 6 6 11 9 8 12 9 19 19 14 13 15
8 7 8 8 8 9 10 11 12 11 11 10 11 13 13 4 3 3 8 9 8 7 5 6 8 7 8 8 10 5 5 7 6 7 4 6 6 6 9 7 16 21 18 13 11
8 8 8 9 8 9 11 12 12 11 11 10 10 11 8 3 10 7 6 7 6 2 6 7 10 8 9 8 5 2 5 5 9 3 7 12 9 9 8 7 8 17 18 16 11
7 8 8 9 9 10 11 12 12 12 10 10 9 12 3 5 5 11 11 8 7 7 8 9 11 12 9 5 4 4 6 3 6 4 2 6 4 6 4 4 13 15 17 12 18
8 8 8 9 9 11 12 12 12 13 11 8 8 5 6 13 5 11 11 11 10 15 15 14 10 8 6 10 2 5 3 7 5 4 4 6 4 6 14 9 10 14 11 22 22
8 8 9 9 10 11 12 13 13 14 12 7 3 4 8 8 6 9 11 10 9 9 5 8 10 7 3 7 6 4 6 4 8 8 5 9 7 7 9 10 7 8 23 25 20
8 9 9 9 10 11 12 14 16 15 11 6 3 4 9 4 5 10 9 7 8 5 6 4 5 5 11 6 7 6 7 7 4 9 8 5 4 7 10 10 8 7 21 19 17
9 9 9 9 9 11 13 12 10 12 7 7 6 4 8 10 7 3 5 6 4 5 5 4 2 3 6 4 4 5 9 6 3 3 5 2 4 7 7 7 10 6 21 20 16
10 8 8 8 8 8 9 6 4 4 3 9 8 5 5 5 3 3 8 3 6 6 5 9 2 6 8 4 7 8 8 8 6 9 5 2 1 5 6 3 10 9 20 14 11
12 9 7 6 5 4 2 4 10 7 6 15 17 17 13 4 6 10 7 4 6 8 7 6 7 5 5 1 3 7 9 9 7 8 8 9 10 9 6 6 9 10 19 17 14
13 9 7 5 2 0 5 11 12 13 2 12 15 9 7 6 11 7 9 8 8 8 10 8 4 6 4 5 4 8 8 8 6 9 9 5 11 1 5 9 9 9 19 16 21
13 11 7 4 0 4 6 14 18 12 2 8 15 9 7 6 6 5 2 3 6 8 9 1 5 5 3 7 7 4 6 7 8 5 5 1 4 4 5 6 7 6 7 8 18
13 11 8 4 5 4 9 6 3 7 3 9 9 4 8 7 7 3 4 5 8 9 3 2 5 3 8 7 7 3 6 7 7 6 1 12 5 4 7 7 6 8 8 8 15
16 11 8 2 3 13 14 4 6 4 7 6 8 6 6 8 4 6 5 5 7 7 2 2 5 6 5 5 2 5 6 10 8 3 2 11 6 3 3 5 5 6 6 6 15
23 12 3 4 6 11 12 4 2 4 8 9 12 9 9 7 8 5 4 3 3 2 5 6 5 6 5 6 8 10 8 6 8 7 4 6 6 5 7 9 9 7 7 9 15
28 15 8 6 6 11 6 5 5 9 11 6 11 10 9 7 6 6 4 4 6 4 3 4 5 7 4 6 2 4 6 5 2 2 7 10 5 3 8 8 7 8 6 6 5
25 1 3 5 8 3 6 2 6 5 8 11 4 6 9 8 6 6 3 4 1 5 5 5 3 7 7 2 5 6 5 4 1 5 3 1 4 1 6 4 7 8 7 6 4
4 3 6 7 6 4 3 6 6 13 6 11 7 3 1 6 8 7 9 6 5 9 9 2 3 5 2 2 6 4 3 5 3 1 5 7 3 3 4 5 8 9 9 8 8
1 3 5 10 6 4 4 6 9 16 5 5 7 8 10 10 2 2 5 5 6 7 6 4 6 7 7 2 4 3 2 3 3 4 4 4 3 5 5 6 8 6 6 7 6
4 2 3 6 4 3 4 6 6 10 5 1 5 5 6 8 5 2 6 7 8 7 4 1 4 2 6 9 7 4 1 4 7 6 1 4 8 3 9 7 8 6 6 5 4
4 4 5 6 3 4 7 14 15 5 2 2 2 5 5 6 5 6 7 2 7 7 3 2 0 2 8 8 6 3 2 5 4 4 5 5 7 2 8 8 7 8 6 7 7
3 4 3 2 3 3 5 10 9 6 3 5 6 7 5 4 6 2 4 2 5 4 5 5 2 6 7 7 5 5 5 5 2 4 5 7 8 9 5 7 6 6 6 4 8
3 5 3 3 3 6 5 9 13 3 5 2 4 6 6 4 4 7 7 7 5 1 3 4 3 1 5 7 8 10 8 9 4 4 2 7 4 5 5 6 6 6 5 9 8
2 3 5 5 6 7 1 7 9 11 6 7 7 8 8 5 3 4 7 4 2 1 4 2 2 5 5 8 12 12 12 5 6 6 14 6 1 4 5 7 8 6 7 8 9
4 5 1 6 6 3 4 6 8 6 9 8 5 4 5 8 7 5 4 7 7 8 4 6 4 2 4 8 9 8 6 6 1 2 5 5 4 4 6 8 6 6 9 9 8
Wind_Direction
302 318 314 313 317 318 319 315 312 305 304 307 311 315 314 318 306 157 243 223 199 226 316 282 301 279 284 275 281 292 69 161 212 235 249 199 102 126 105 134 93 93 124 134 138
298 311 306 304 312 311 314 312 305 304 303 306 311 313 314 332 282 251 243 155 154 160 234 264 273 266 270 269 277 264 159 183 197 206 258 142 136 154 117 106 106 107 127 145 146
293 302 299 301 307 310 305 303 299 300 302 311 317 309 312 323 290 242 145 173 179 194 243 270 278 267 276 268 269 275 79 70 152 161 167 137 155 154 119 128 140 141 151 159 148
296 299 298 298 302 302 300 298 297 298 305 315 313 314 314 235 328 128 169 184 207 245 273 269 271 250 246 264 278 30 347 96 73 31 34 172 101 99 128 191 157 149 152 162 171
293 294 297 295 298 299 298 295 294 297 303 311 317 325 338 244 245 175 168 192 207 277 242 257 285 268 248 250 248 74 310 81 97 43 294 99 144 153 181 190 169 157 157 175 124
291 289 294 290 295 295 293 291 292 296 299 303 318 317 245 274 160 165 193 168 227 190 247 245 245 265 276 282 78 357 23 57 126 228 102 62 138 97 293 242 149 163 176 131 74
295 293 289 288 295 290 292 292 295 294 295 303 303 299 269 248 190 176 197 209 209 216 232 237 227 8 346 330 300 350 317 283 227 192 56 93 323 152 196 189 165 175 163 118 103
302 297 290 299 296 295 297 296 294 289 289 296 276 269 253 253 227 188 217 244 231 271 293 334 350 330 2 309 343 244 326 281 236 141 173 101 269 331 125 149 166 221 120 120 117
314 306 301 299 295 300 300 296 286 284 273 224 235 201 274 267 258 235 214 241 212 252 276 286 337 297 326 327 338 308 244 251 113 169 145 135 226 207 185 170 185 206 125 126 131
328 317 302 296 300 308 303 269 287 324 281 185 250 308 263 242 219 287 291 290 327 282 293 229 254 248 312 35 255 328 0 15 112 169 134 156 3 328 238 169 194 204 111 137 151
338 322 303 300 304 319 339 327 325 299 246 214 188 234 261 118 94 256 264 227 255 288 267 271 192 234 245 80 19 359 3 345 26 24 21 23 47 304 288 168 55 48 109 118 143
348 335 311 303 303 323 303 260 250 251 276 227 255 275 264 349 229 228 201 227 216 239 255 303 253 265 64 128 60 15 33 349 354 12 31 337 310 263 67 92 80 60 130 137 156
352 343 326 301 303 80 219 239 261 301 307 278 221 254 222 208 255 181 163 235 240 248 256 208 189 78 37 337 41 55 36 357 345 334 341 351 324 284 81 80 69 53 135 146 163
351 345 338 312 49 228 229 247 247 266 348 259 195 237 184 216 260 89 31 4 317 245 261 179 104 48 334 38 55 74 33 339 323 358 290 20 271 32 105 102 93 84 96 119 163
341 336 342 219 303 274 239 234 19 50 293 167 179 221 142 199 157 157 78 313 273 316 332 34 115 134 61 74 39 308 336 294 276 276 249 291 98 260 82 59 74 66 65 47 145
336 330 329 166 233 246 297 10 44 28 249 171 142 159 162 235 218 144 180 216 269 305 22 130 87 48 61 14 142 318 351 322 292 146 20 256 122 307 85 105 67 63 73 72 107
329 323 268 321 249 320 297 52 48 213 286 144 160 174 214 194 237 124 193 177 250 20 319 294 119 93 51 343 34 25 40 344 360 7 231 336 9 199 78 66 79 72 49 49 142
324 320 215 224 280 304 346 29 232 254 244 284 161 169 189 214 194 151 206 234 226 267 331 93 4 135 128 93 14 339 99 127 313 318 272 310 107 193 129 125 136 138 111 67 91
315 321 270 248 236 301 50 261 217 245 332 331 98 176 199 211 151 134 198 263 262 78 92 54 58 101 88 31 104 327 29 206 105 277 20 177 46 2 144 139 76 62 46 7 319
324 294 250 236 245 55 61 250 287 305 352 348 29 325 305 228 151 163 174 218 139 107 106 47 38 350 148 169 49 104 258 16 350 331 330 332 114 167 66 76 67 45 31 29 43
280 309 270 164 85 60 213 252 287 290 92 355 335 342 332 335 135 168 219 47 108 112 98 95 112 301 4 101 194 315 332 354 123 118 168 328 289 180 141 135 115 107 100 91 69
321 300 209 93 86 203 228 254 283 292 97 315 319 314 310 338 347 211 55 34 346 121 90 163 121 64 283 309 81 34 302 111 111 296 143 165 275 189 113 102 132 117 102 131 135
321 273 286 100 192 248 271 258 266 6 352 333 250 292 308 307 342 93 97 337 12 51 85 352 128 49 344 358 358 61 292 187 166 100 200 144 263 282 95 74 71 84 52 46 58
300 301 277 110 239 261 318 295 289 161 278 333 313 303 325 272 319 117 114 108 28 96 149 88 71 148 186 234 266 280 254 295 156 122 226 221 247 287 101 109 103 96 87 64 61
240 262 327 280 256 242 221 278 303 188 152 221 305 308 295 310 291 300 127 129 99 176 56 85 169 294 294 299 310 302 310 290 266 249 220 250 269 118 127 88 84 81 61 75 61
278 5 348 292 305 326 192 259 287 306 163 208 200 243 278 262 278 323 124 72 143 305 111 75 292 9 316 307 285 281 279 304 319 284 307 199 125 103 81 94 72 48 50 75 61
324 316 138 287 325 306 278 303 292 296 311 327 131 68 31 1 345 330 105 172 142 138 185 148 141 55 270 309 322 328 293 298 260 55 82 63 271 16 56 78 56 33 91 87 82